Location: *
(49.6619°S, 177.4603°W)
Time: 04:48:59
(UTC+00:00)

Cosmos 864 Rocket - Pass Details

Date: 31 January 2023
Orbit: 952 x 991 km, 82.9° (Epoch: 01 April)

Event Time Altitude Azimuth Distance (km) Brightness Sun altitude
Exits shadow 11:04:05 42° 17° (NNE) 1,346 4.7 -21.7°
Maximum altitude 11:06:12 69° 85° (E) 1,033 4.5 -21.8°
Drops below altitude 10° 11:12:25 10° 167° (SSE) 2,737 7.7 -22.0°
Sets 11:14:58 0° 168° (SSE) 3,696 8.7 -22.1°
